Location: Unspecified
(41.5516°N, 88.1098°W)
Time: 07:29:18
(UTC-05:00)

Cosmos 1674 - Visible Passes

Search period start: 23 June 2018 00:00
Search period end: 03 July 2018 00:00
Orbit: 498 x 519 km, 82.5° (Epoch: 23 June)

Date Brightness Start Highest point End Pass type
(mag) Time Alt. Az. Time Alt. Az. Time Alt. Az.
23 Jun 2.7 21:50:48 10° S 21:54:36 86° W 21:58:28 10° N visible
24 Jun 2.6 21:33:39 10° S 21:37:26 72° E 21:41:18 10° NNE visible
25 Jun 2.9 21:16:36 10° S 21:20:18 53° E 21:24:04 10° NNE visible
25 Jun 5.9 22:55:32 10° W 22:56:14 10° WNW 22:56:57 10° WNW visible
26 Jun 3.2 20:59:36 10° SSE 21:03:10 40° E 21:06:48 10° NNE visible
26 Jun 5.6 22:37:03 10° W 22:38:58 13° WNW 22:40:55 10° NW visible
27 Jun 5.5 22:19:10 10° WSW 22:21:42 17° WNW 22:24:16 10° NNW visible
28 Jun 5.3 22:01:29 10° SW 22:04:28 21° WNW 22:07:28 10° NNW visible
29 Jun 4.9 21:43:56 10° SW 21:47:14 27° WNW 21:50:34 10° NNW visible
30 Jun 4.5 21:26:30 10° SW 21:30:00 34° WNW 21:33:35 10° N visible
01 Jul 3.9 21:09:08 10° SSW 21:12:48 45° W 21:16:32 10° N visible
